Regional Weather Roundup
Issued by NWS

Home | Current Version | Previous Version | Graphics & Text | Print | Product List | Glossary On
Versions: 1 2 3 4 5 6 7 8 9 10 11 12 13 14 15 16 17 18 19 20 21 22 23 24 25 26 27 28 29 30 31 32 33 34 35 36 37 38 39 40 41 42 43 44 45 46 47 48 49 50
000
ASUS43 KLOT 280303
RWRIL

ILLINOIS REGIONAL WEATHER ROUNDUP
NATIONAL WEATHER SERVICE CHICAGO/ROMEOVILLE IL
1000 PM CDT SAT AUG 27 2016

NOTE: "FAIR" INDICATES FEW OR NO CLOUDS BELOW 12,000 FEET WITH NO
SIGNIFICANT WEATHER AND/OR OBSTRUCTIONS TO VISIBILITY.

* THESE STATIONS ARE NOT UNDER NWS QUALITY CONTROL. THEY ALSO MAY NOT
  REPORT WEATHER SUCH AS PRECIPITATION OR FOG.

ILZ001-002-007-009-015-016-024-280400-
NORTHWEST ILLINOIS

CITY           SKY/WX    TMP DP  RH WIND       PRES   REMARKS
MOLINE         CLOUDY    77  72  84 CALM      30.04S
STERLING*      PTCLDY    73  71  93 CALM      30.08R
SAVANNA*       CLEAR     70  69  95 CALM      30.06S
$$

ILZ003-004-008-010-011-017-018-280400-
NORTH CENTRAL ILLINOIS

CITY           SKY/WX    TMP DP  RH WIND       PRES   REMARKS
ROCKFORD       CLOUDY    75  69  81 CALM      30.09R
ROCHELLE*      LGT RAIN  73  72  98 CALM      30.09R
$$

ILZ005-006-012>014-019>023-280400-
NORTHEAST ILLINOIS

CITY           SKY/WX    TMP DP  RH WIND       PRES   REMARKS
CHICAGO-OHARE  MOCLDY    77  70  79 SW3       30.08R
CHICAGO-MIDWAY MOCLDY    79  71  76 SW3       30.07R HX  82
AURORA         MOCLDY    73  70  90 CALM      30.09R
LANSING*       CLOUDY    74  73  97 S5        30.09R
JOLIET*        CLOUDY    75  74  95 CALM      30.08S
WAUKEGAN       PTCLDY    73  70  90 VRB3      30.07S
DUPAGE AIRPORT PTCLDY    75  69  81 SW3       30.09R
KANKAKEE*      CLOUDY    77  74  90 S5        30.09S
WHEELING       MOCLDY    75  70  84 NW3       30.09R
MORRIS*        CLOUDY    74  72  95 CALM      30.06S
ROMEOVILLE*    CLOUDY    74  73  99 SW3       30.08S
NORTHERLY ISL    N/A     80  69  69 SW3         N/A  HX  83
$$

LMZ740>746-280400-
SOUTHERN LAKE MICHIGAN

STATION/POSITION SKY/WX   TEMP    WIND        PRES    VSBY  WAVE
                          AIR SEA DIR/SP/G                  HT/PER
                          (F)     (DEG/KT/KT) (MB)    (MI)  (FT/S)
SOUTHERN BUOY              76 75  150/  8/ 10 1017.0          1/ 3
WILMETTE HARBOR            72 70  310/  2/  4   N/A           1/ 3
HARRISON CRIB              82     220/  6/  8   N/A
BURNHAM HARBOR             80     270/  3/  6   N/A
CALUMET HARBOR             80     200/  3/  5 1017.7R
BURNS HARBOR               79     190/  7/  9 1018.6R
MICHIGAN CITY              79     160/  9/ 13   N/A
MICHIGAN CITY 6N           78 76  180/  6/  8   N/A           1
ST. JOSEPH                 78 76  170/  8/ 10 1017.8R         1
$$

ILZ025>027-034>036-040-047-049-050-058-095>099-280400-
WEST-CENTRAL ILLINOIS

CITY           SKY/WX    TMP DP  RH WIND       PRES   REMARKS
QUINCY         MOCLDY    78  75  90 S7        30.06R HX  81
GALESBURG*     CLEAR     75  73  91 SE5       30.06F
MACOMB*        PTCLDY    73  71  96 S3        30.09R
JACKSONVILLE*  CLOUDY    76  71  84 S3        30.08R
PITTSFIELD*    PTCLDY    77  74  92 SE5       30.08S
$$

ILZ028>032-037-038-041>044-048-051>054-059>061-280400-
CENTRAL ILLINOIS

CITY           SKY/WX    TMP DP  RH WIND       PRES   REMARKS
PONTIAC        MOCLDY    77  75  93 S5        30.09S
BLOOMINGTON    CLOUDY    73  69  87 S6        30.10S
DECATUR        CLOUDY    74  67  78 SW3       30.08F
PEORIA         PTCLDY    77  74  90 SE6       30.08R
LACON*         PTCLDY    74  72  93 SE3       30.06S
LINCOLN*       CLOUDY    75  73  92 CALM      30.08F
SPRINGFIELD    CLOUDY    79  73  82 SE6       30.08R HX  82
TAYLORVILLE    DRIZZLE   77  74  92 E6        30.08S
$$

ILZ033-039-045-046-055>057-062-063-280400-
EAST-CENTRAL ILLINOIS

CITY           SKY/WX    TMP DP  RH WIND       PRES   REMARKS
CHAMPAIGN      PTCLDY    70  67  90 NW3       30.10S
RANTOUL*       MOCLDY    75  73  94 CALM      30.10S
MATTOON        CLEAR     73  71  93 SE3       30.09F
PARIS*         CLOUDY    72  72 100 CALM      30.11S
$$

ILZ079-100>102-280400-
SOUTHWEST ILLINOIS

CITY           SKY/WX    TMP DP  RH WIND       PRES   REMARKS
ALTON          CLEAR     70  68  94 CALM      30.06S
BELLEVILLE     CLEAR     77  75  93 E1        30.07R
CAHOKIA*       PTCLDY    77  70  79 CALM      30.07R
SPARTA*        CLEAR     76  74  93 CALM      30.09R
$$

ILZ064>066-069>071-074>076-080>082-084>086-088>090-092>094-280400-
SOUTH-CENTRAL ILLINOIS

CITY           SKY/WX    TMP DP  RH WIND       PRES   REMARKS
CARBONDALE     CLEAR     75  73  93 CALM      30.08R
EFFINGHAM*     CLEAR     74  74 100 E3        30.10F
MARION         CLEAR     75  73  94 CALM      30.10R
MT. VERNON     CLEAR     73  68  83 CALM      30.10R
CENTRALIA*     CLEAR     75  74  98 CALM      30.09R
SALEM*         CLEAR     79  74  84 CALM      30.10R HX  82
METROPOLIS*    PTCLDY    76  76  97 CALM      30.09R
$$

ILZ067-068-072-073-078-083-087-091-280400-
SOUTHEAST ILLINOIS

CITY           SKY/WX    TMP DP  RH WIND       PRES   REMARKS
LAWRENCEVILLE  MOCLDY    77  75  93 NE3       30.10S
FLORA*         PTCLDY    77  74  92 CALM      30.10R
FAIRFIELD*     PTCLDY    76  74  96 CALM      30.09R
HARRISBURG*    MOCLDY    76  75  98 CALM      30.09R
ROBINSON*      CLOUDY    72  72 100 CALM      30.11S
CARMI*         CLOUDY    76  76  99 CALM      30.08R
$$

ABBREVIATIONS USED IN REMARKS
   TC - TEMPERATURE IN CELSIUS
  WCI - WIND CHILL INDEX
   HX - HEAT INDEX
  VSB - VISIBILITY
$$





USA.gov is the U.S. government's official web portal to all federal, state and local government web resources and services.